Location: Croissy-Beaubourg
(48.8283°N, 2.6696°E)
Time: 20:42:05
(UTC+00:00)

Cosmos 2263 Rocket - Pass Details

Date: 16 October 2021
Orbit: 825 x 847 km, 71.0° (Epoch: 07 December)

Event Time Altitude Azimuth Distance (km) Brightness Sun altitude
Rises 17:17:14 0° 335° (NNW) 3,379 5.5 -4.0°
Reaches altitude 10° 17:20:06 10° 349° (NNW) 2,440 4.7 -4.5°
Maximum altitude 17:24:44 26° 45° (NE) 1,584 3.2 -5.2°
Drops below altitude 10° 17:29:19 10° 101° (E) 2,427 4.0 -6.0°
Enters shadow 17:30:57 - 109° (ESE) 2,948 4.5 -6.3°
